Location: Kershaw
(34.5481°N, 80.5823°W)
Time: 07:33:40
(UTC+00:00)

Explorer 7 - Pass Details

Date: 08 October 2022
Orbit: 481 x 665 km, 50.3° (Epoch: 28 November)

Event Time Altitude Azimuth Distance (km) Brightness Sun altitude
Rises 19:51:24 0° 314° (NW) 2,962 10.6 34.3°
Reaches altitude 10° 19:53:52 10° 320° (NW) 2,028 9.8 33.9°
Maximum altitude 19:58:22 47° 35° (NE) 814 7.7 33.2°
Drops below altitude 10° 20:02:38 10° 110° (ESE) 1,916 9.4 32.4°
Sets 20:04:54 0° 116° (ESE) 2,780 10.2 32.1°
